Location: Great Chart
(51.1333°N, 0.8333°E)
Time: 10:11:49
(UTC+00:00)

PSLV R/B - Pass Details

Date: 19 September 2020
Orbit: 594 x 629 km, 97.9° (Epoch: 31 October)

Event Time Altitude Azimuth Distance (km) Brightness Sun altitude
Rises 04:02:26 0° 14° (NNE) 2,866 7.5 -15.5°
Reaches altitude 10° 04:04:38 10° 16° (NNE) 1,953 6.6 -15.2°
Maximum altitude 04:08:52 80° 103° (ESE) 612 3.6 -14.5°
Drops below altitude 10° 04:13:03 10° 192° (SSW) 1,926 5.8 -13.9°
Enters shadow 04:14:12 - 193° (SSW) 2,400 6.3 -13.8°
